Regional Weather Roundup
Issued by NWS

Home | Current Version | Previous Version | Text Only | Print | Product List | Glossary On
Versions: 1 2 3 4 5 6 7 8 9 10 11 12 13 14 15 16 17 18 19 20 21 22 23 24 25 26 27 28 29 30 31 32 33 34 35 36 37 38 39 40 41 42 43 44 45 46 47 48 49 50
000
ASUS43 KLSX 010659
RWRMO

WEATHER SUMMARY FOR MISSOURI
NATIONAL WEATHER SERVICE SPRINGFIELD MO
100 AM CST SUN MAR 01 2015

NOTE: "FAIR" INDICATES FEW OR NO CLOUDS BELOW 12,000 FEET WITH NO
       SIGNIFICANT WEATHER AND/OR OBSTRUCTIONS TO VISIBILITY.
       CURRENT SKY AND/OR WEATHER CONDITIONS ARE NOT AVAILABLE FOR
       CHILLICOTHE AND FARMINGTON.

MOZ001>031-035>038-043-044-053-054-010800-
...NORTHERN AND WESTERN MISSOURI...

CITY           SKY/WX    TMP DP  RH WIND       PRES   REMARKS
KANSAS CTY INT LGT SNOW  22  20  92 CALM      30.35F FOG
KANSAS C DTWN  CLOUDY    24  21  88 CALM      30.38S
LEE`S SUMMIT   CLOUDY    22  20  92 CALM      30.36S
ST JOSEPH      CLOUDY    23  19  85 CALM      30.39S
CHILLICOTHE      N/A     23  19  85 CALM      30.39F
KIRKSVILLE     CLOUDY    20  18  92 CALM      30.37F FOG

$$
MOZ066>068-077>081-088>096-101>105-010800-
...SOUTHWEST MISSOURI...

CITY           SKY/WX    TMP DP  RH WIND       PRES   REMARKS
SPRINGFIELD    FLURRIES  27  24  89 CALM      30.30F
JOPLIN         CLOUDY    27  26  96 S3        30.34F FOG

$$
MOZ032>034-039>042-045>050-055>058-069>072-010800-
...CENTRAL MISSOURI...

CITY           SKY/WX    TMP DP  RH WIND       PRES   REMARKS
COLUMBIA       LGT SNOW  23  22  96 E5        30.35F FOG     WCI  17
JEFFERSON CITY CLOUDY    25  22  88 E3        30.38F FOG
ROLLA          CLOUDY    24  22  91 CALM      30.32F FOG
SEDALIA        LGT SNOW  24  21  88 E3        30.36F FOG
OSAGE BEACH    CLOUDY    25  21  86 E3        30.34F

$$
MOZ051-052-059>065-010800-
...EAST CENTRAL MISSOURI...

CITY           SKY/WX    TMP DP  RH WIND       PRES   REMARKS
ST LOUIS INTL  LGT SNOW  25  22  88 E3        30.39F FOG
SPIRIT OF STL  LGT SNOW  25  23  92 CALM      30.39F FOG
ST CHARLES     LGT SNOW  24  22  91 E6        30.40F FOG     WCI  17

$$
MOZ072>076-082>087-097>100-106>115-010800-
...SOUTH CENTRAL AND SOUTHEAST MISSOURI...

CITY           SKY/WX    TMP DP  RH WIND       PRES   REMARKS
CAPE GIRARDEAU MIX PCPN  31  25  78 N5        30.42S WCI  26
FARMINGTON     CLOUDY    27  25  93 S8        30.38F WCI  18
POPLAR BLUFF   MIX PCPN  30  24  78 MISG      30.40S
WEST PLAINS    FRZ RAIN  27  25  92 SE5       30.35F FOG     WCI  22

$$



USA.gov is the U.S. government's official web portal to all federal, state and local government web resources and services.